Location: Santa Barbara
(34.4500°N, 119.7700°W)
Time: 22:04:48
(UTC-08:00)

Envisat - Pass Details

Date: 31 October 2019
Orbit: 764 x 766 km, 98.1° (Epoch: 19 November)

Event Time Altitude Azimuth Distance (km) Brightness Sun altitude
Rises 18:39:01 0° 151° (SSE) 3,217 6.1 -7.3°
Reaches altitude 10° 18:41:22 10° 146° (SE) 2,295 5.3 -7.8°
Maximum altitude 18:46:13 48° 73° (ENE) 1,000 3.2 -8.7°
Drops below altitude 10° 18:51:05 10° 0° (N) 2,307 5.4 -9.7°
Sets 18:53:27 0° 355° (N) 3,237 6.2 -10.2°
